This is the latest recevied weather packets stored in our database for station/object HB9HFD-13. If no packets are shown the sender has not sent any weather packets the latest 10 day(s).
| Time | Temp. | Humidity | Pressure | Rain* | Wind** | Luminosity | Snow |
|---|---|---|---|---|---|---|---|
| 1787922087 | 22.22° C | 70% | 1014 hPa | 0 mm | - | - | - |
| 1787921787 | 21.67° C | 69% | 1014 hPa | 0 mm | - | - | - |
| 1787921487 | 21.11° C | 71% | 1014.3 hPa | 0 mm | - | - | - |
| 1787921186 | 21.11° C | 72% | 1014.2 hPa | 0 mm | - | - | - |
| 1787920886 | 21.11° C | 70% | 1014.2 hPa | 0 mm | - | - | - |
| 1787920586 | 21.11° C | 68% | 1014 hPa | 0 mm | - | - | - |
| 1787920286 | 21.67° C | 72% | 1014 hPa | 0 mm | - | - | - |
| 1787919985 | 21.67° C | 71% | 1014.2 hPa | 0 mm | - | - | - |
| 1787919685 | 21.67° C | 71% | 1014.3 hPa | 0 mm | - | - | - |
| 1787919385 | 21.67° C | 71% | 1014.1 hPa | 0 mm | - | - | - |
| 1787919085 | 21.67° C | 72% | 1014.2 hPa | 0 mm | - | - | - |
| 1787918784 | 21.11° C | 72% | 1014 hPa | 0 mm | - | - | - |
| 1787918484 | 21.11° C | 72% | 1014.5 hPa | 0 mm | - | - | - |
| 1787918184 | 21.11° C | 72% | 1014.3 hPa | 0 mm | - | - | - |
| 1787917884 | 21.67° C | 71% | 1014.5 hPa | 0 mm | - | - | - |
| 1787917583 | 21.11° C | 74% | 1014.3 hPa | 0 mm | - | - | - |
| 1787917283 | 20.56° C | 74% | 1014.2 hPa | 0 mm | - | - | - |
| 1787916983 | 21.11° C | 74% | 1014.6 hPa | 0 mm | - | - | - |
| 1787916682 | 20.56° C | 72% | 1014.5 hPa | 0 mm | - | - | - |
| 1787916382 | 20.56° C | 70% | 1015.1 hPa | 0 mm | - | - | - |
| 1787916082 | 21.11° C | 67% | 1014.7 hPa | 0 mm | - | - | - |
| 1787915782 | 21.11° C | 64% | 1015 hPa | 0 mm | - | - | - |
| 1787915481 | 21.11° C | 61% | 1014.7 hPa | 0 mm | - | - | - |
| 1787915181 | 20.56° C | 63% | 1014.6 hPa | 0 mm | - | - | - |
| 1787914881 | 20.56° C | 63% | 1014.7 hPa | 0 mm | - | - | - |
* Rain latest hour (hover to see other rain measurements)
** Current wind speed in m/s (hover to see current wind gust speed)